owner,sensor,date,latitude,longitude,vertical_datum,sea_water_temperature,qcFlag
Shell,ioos:station:wmo:42882:1,2021-12-16T15:10:00Z,28.1732,-89.1169,10.3,25.6,11111222
Shell,ioos:station:wmo:42882:1,2021-12-16T15:31:00Z,28.1776,-89.1162,10.1,25.6,11111222
Shell,ioos:station:wmo:42882:1,2021-12-16T15:41:00Z,28.1776,-89.1162,10.2,25.7,11111222
Shell,ioos:station:wmo:42882:1,2021-12-16T15:51:00Z,28.1776,-89.1162,10.9,25.7,11111222
Shell,ioos:station:wmo:42882:1,2021-12-16T16:01:00Z,28.1776,-89.1162,10.6,25.7,11111222
Shell,ioos:station:wmo:42882:1,2021-12-16T16:11:00Z,28.1776,-89.1162,10.5,25.7,11111222
Shell,ioos:station:wmo:42882:1,2021-12-16T16:21:00Z,28.1776,-89.1162,10.5,25.8,11111222
Shell,ioos:station:wmo:42882:1,2021-12-16T16:31:00Z,28.1776,-89.1162,10.4,25.8,11111222
Shell,ioos:station:wmo:42882:1,2021-12-16T16:41:00Z,28.1776,-89.1162,10.4,25.8,11111222
Shell,ioos:station:wmo:42882:1,2021-12-16T16:51:00Z,28.1776,-89.1162,10.4,25.8,11111222
Shell,ioos:station:wmo:42882:1,2021-12-16T17:01:00Z,28.1776,-89.1162,10.4,25.8,11111222
Shell,ioos:station:wmo:42882:1,2021-12-16T17:11:00Z,28.1776,-89.1162,10.5,25.8,11111222
Shell,ioos:station:wmo:42882:1,2021-12-16T17:21:00Z,28.1776,-89.1162,10.4,25.8,11111222
Shell,ioos:station:wmo:42882:1,2021-12-16T17:31:00Z,28.1776,-89.1162,10.4,25.8,11111222
Shell,ioos:station:wmo:42882:1,2021-12-16T17:41:00Z,28.1776,-89.1162,10.4,25.8,11111222
Shell,ioos:station:wmo:42882:1,2021-12-16T17:51:00Z,28.1776,-89.1162,10.4,25.8,11111222
Shell,ioos:station:wmo:42882:1,2021-12-16T18:01:00Z,28.1776,-89.1162,10.5,25.8,11111222
Shell,ioos:station:wmo:42882:1,2021-12-16T18:11:00Z,28.1776,-89.1162,10.5,25.8,11111222
Shell,ioos:station:wmo:42882:1,2021-12-16T18:21:00Z,28.1776,-89.1162,10.5,25.8,11111222
Shell,ioos:station:wmo:42882:1,2021-12-16T18:31:00Z,28.1776,-89.1162,10.4,25.8,11111222
Shell,ioos:station:wmo:42882:1,2021-12-16T18:41:00Z,28.1776,-89.1162,10.4,25.8,11111222
Shell,ioos:station:wmo:42882:1,2021-12-16T18:51:00Z,28.1776,-89.1162,10.3,25.8,11111222
Shell,ioos:station:wmo:42882:1,2021-12-16T19:01:00Z,28.1776,-89.1162,10.4,25.8,11111222
Shell,ioos:station:wmo:42882:1,2021-12-16T19:11:00Z,28.1776,-89.1162,10.2,25.8,11111222
Shell,ioos:station:wmo:42882:1,2021-12-16T19:21:00Z,28.1776,-89.1162,10.2,25.8,11111222
Shell,ioos:station:wmo:42882:1,2021-12-16T19:31:00Z,28.1776,-89.1162,10.3,25.8,11111222
Shell,ioos:station:wmo:42882:1,2021-12-16T19:41:00Z,28.1776,-89.1162,10.3,25.8,11111222
Shell,ioos:station:wmo:42882:1,2021-12-16T19:51:00Z,28.1776,-89.1162,10.3,25.8,11111222
Shell,ioos:station:wmo:42882:1,2021-12-16T20:01:00Z,28.1776,-89.1162,10.3,25.8,11111222
Shell,ioos:station:wmo:42882:1,2021-12-16T20:11:00Z,28.1776,-89.1162,10.2,25.8,11111222
Shell,ioos:station:wmo:42882:1,2021-12-16T20:21:00Z,28.1776,-89.1162,10.4,25.8,11111222
Shell,ioos:station:wmo:42882:1,2021-12-16T20:31:00Z,28.1776,-89.1162,10.5,25.8,11111222
Shell,ioos:station:wmo:42882:1,2021-12-16T20:41:00Z,28.1776,-89.1162,10.5,25.8,11111222
Shell,ioos:station:wmo:42882:1,2021-12-16T20:51:00Z,28.1776,-89.1162,10.5,25.8,11111222
Shell,ioos:station:wmo:42882:1,2021-12-16T21:01:00Z,28.1776,-89.1162,10.3,25.9,11111222
Shell,ioos:station:wmo:42882:1,2021-12-16T21:11:00Z,28.1776,-89.1162,10.3,25.8,11111222
Shell,ioos:station:wmo:42882:1,2021-12-16T21:21:00Z,28.1776,-89.1162,10.2,25.9,11111222
Shell,ioos:station:wmo:42882:1,2021-12-16T21:31:00Z,28.1776,-89.1162,10.1,25.9,11111222
Shell,ioos:station:wmo:42882:1,2021-12-16T21:41:00Z,28.1776,-89.1162,10.1,25.9,11111222
Shell,ioos:station:wmo:42882:1,2021-12-16T21:51:00Z,28.1776,-89.1162,10.1,25.9,11111222
Shell,ioos:station:wmo:42882:1,2021-12-16T22:01:00Z,28.1776,-89.1162,10.1,25.8,11111222
Shell,ioos:station:wmo:42882:1,2021-12-16T22:11:00Z,28.1776,-89.1162,10.0,25.8,11111222
Shell,ioos:station:wmo:42882:1,2021-12-16T22:21:00Z,28.1776,-89.1162,10.0,25.8,11111222
Shell,ioos:station:wmo:42882:1,2021-12-16T22:31:00Z,28.1776,-89.1162,10.0,25.8,11111222
Shell,ioos:station:wmo:42882:1,2021-12-16T22:41:00Z,28.1776,-89.1162,10.0,25.8,11111222
Shell,ioos:station:wmo:42882:1,2021-12-16T22:51:00Z,28.1776,-89.1162,10.1,25.8,11111222
Shell,ioos:station:wmo:42882:1,2021-12-16T23:01:00Z,28.1776,-89.1162,10.1,25.8,11111222
Shell,ioos:station:wmo:42882:1,2021-12-16T23:11:00Z,28.1776,-89.1162,10.1,25.8,11111222
Shell,ioos:station:wmo:42882:1,2021-12-16T23:21:00Z,28.1776,-89.1162,10.1,25.8,11111222
Shell,ioos:station:wmo:42882:1,2021-12-16T23:31:00Z,28.1732,-89.1169,10.0,25.8,11111222
Shell,ioos:station:wmo:42882:1,2021-12-16T23:41:00Z,28.1776,-89.1162,10.0,25.8,11111222
Shell,ioos:station:wmo:42882:1,2021-12-16T23:51:00Z,28.1776,-89.1162,10.0,25.8,11111222
Shell,ioos:station:wmo:42882:1,2021-12-17T00:01:00Z,28.1776,-89.1162,10.0,25.8,11111222
Shell,ioos:station:wmo:42882:1,2021-12-17T00:11:00Z,28.1776,-89.1162,10.0,25.8,11111222
Shell,ioos:station:wmo:42882:1,2021-12-17T00:21:00Z,28.1776,-89.1162,10.0,25.8,11111222
Shell,ioos:station:wmo:42882:1,2021-12-17T00:31:00Z,28.1776,-89.1162,10.1,25.8,11111222
Shell,ioos:station:wmo:42882:1,2021-12-17T00:41:00Z,28.1776,-89.1162,10.1,25.8,11111222
Shell,ioos:station:wmo:42882:1,2021-12-17T00:51:00Z,28.1776,-89.1162,10.1,25.8,11111222
Shell,ioos:station:wmo:42882:1,2021-12-17T01:01:00Z,28.1776,-89.1162,10.1,25.8,11111222
Shell,ioos:station:wmo:42882:1,2021-12-17T01:11:00Z,28.1776,-89.1162,10.1,25.8,11111222
Shell,ioos:station:wmo:42882:1,2021-12-17T01:21:00Z,28.1776,-89.1162,10.2,25.8,11111222
Shell,ioos:station:wmo:42882:1,2021-12-17T01:31:00Z,28.1776,-89.1162,10.3,25.8,11111222
Shell,ioos:station:wmo:42882:1,2021-12-17T01:41:00Z,28.1776,-89.1162,10.3,25.8,11111222
Shell,ioos:station:wmo:42882:1,2021-12-17T01:51:00Z,28.1776,-89.1162,10.3,25.8,11111222
Shell,ioos:station:wmo:42882:1,2021-12-17T02:01:00Z,28.1776,-89.1162,10.3,25.8,11111222
Shell,ioos:station:wmo:42882:1,2021-12-17T02:11:00Z,28.1776,-89.1162,10.2,25.8,11111222
Shell,ioos:station:wmo:42882:1,2021-12-17T02:21:00Z,28.1776,-89.1162,10.2,25.8,11111222
Shell,ioos:station:wmo:42882:1,2021-12-17T02:31:00Z,28.1776,-89.1162,10.0,25.8,11111222
Shell,ioos:station:wmo:42882:1,2021-12-17T02:41:00Z,28.1776,-89.1162,10.0,25.8,11111222
Shell,ioos:station:wmo:42882:1,2021-12-17T02:51:00Z,28.1776,-89.1162,10.0,25.8,11111222
Shell,ioos:station:wmo:42882:1,2021-12-17T03:01:00Z,28.1776,-89.1162,10.3,25.8,11111222
Shell,ioos:station:wmo:42882:1,2021-12-17T03:11:00Z,28.1776,-89.1162,10.4,25.8,11111222
Shell,ioos:station:wmo:42882:1,2021-12-17T03:21:00Z,28.1776,-89.1162,10.4,25.8,11111222
Shell,ioos:station:wmo:42882:1,2021-12-17T03:31:00Z,28.1776,-89.1162,10.5,25.8,11111222
Shell,ioos:station:wmo:42882:1,2021-12-17T03:41:00Z,28.1776,-89.1162,10.4,25.8,11111222
Shell,ioos:station:wmo:42882:1,2021-12-17T03:51:00Z,28.1776,-89.1162,10.2,25.8,11111222
Shell,ioos:station:wmo:42882:1,2021-12-17T04:01:00Z,28.1776,-89.1162,10.3,25.8,11111222
Shell,ioos:station:wmo:42882:1,2021-12-17T04:11:00Z,28.1776,-89.1162,10.3,25.8,11111222
Shell,ioos:station:wmo:42882:1,2021-12-17T04:21:00Z,28.1776,-89.1162,10.2,25.8,11111222
Shell,ioos:station:wmo:42882:1,2021-12-17T04:31:00Z,28.1776,-89.1162,10.1,25.8,11111222
Shell,ioos:station:wmo:42882:1,2021-12-17T04:41:00Z,28.1776,-89.1162,10.0,25.8,11111222
Shell,ioos:station:wmo:42882:1,2021-12-17T04:51:00Z,28.1776,-89.1162,10.0,25.8,11111222
Shell,ioos:station:wmo:42882:1,2021-12-17T05:01:00Z,28.1776,-89.1162,10.0,25.8,11111222
Shell,ioos:station:wmo:42882:1,2021-12-17T05:11:00Z,28.1776,-89.1162,10.0,25.8,11111222
Shell,ioos:station:wmo:42882:1,2021-12-17T05:21:00Z,28.1776,-89.1162,10.0,25.8,11111222
Shell,ioos:station:wmo:42882:1,2021-12-17T05:31:00Z,28.1776,-89.1162,10.0,25.8,11111222
Shell,ioos:station:wmo:42882:1,2021-12-17T05:41:00Z,28.1776,-89.1162,10.0,25.8,11111222
Shell,ioos:station:wmo:42882:1,2021-12-17T05:51:00Z,28.1776,-89.1162,10.0,25.8,11111222
Shell,ioos:station:wmo:42882:1,2021-12-17T06:01:00Z,28.1776,-89.1162,10.0,25.8,11111222
Shell,ioos:station:wmo:42882:1,2021-12-17T06:11:00Z,28.1776,-89.1162,10.1,25.8,11111222
Shell,ioos:station:wmo:42882:1,2021-12-17T06:21:00Z,28.1775,-89.1159,10.1,25.8,11111222
Shell,ioos:station:wmo:42882:1,2021-12-17T06:31:00Z,28.1778,-89.1153,10.1,25.8,11111222
Shell,ioos:station:wmo:42882:1,2021-12-17T06:41:00Z,28.1776,-89.1159,10.1,25.8,11111222
Shell,ioos:station:wmo:42882:1,2021-12-17T06:51:00Z,28.1773,-89.1166,10.3,25.8,11111222
Shell,ioos:station:wmo:42882:1,2021-12-17T07:01:00Z,28.1773,-89.1166,10.2,25.8,11111222
Shell,ioos:station:wmo:42882:1,2021-12-17T07:11:00Z,28.1773,-89.1166,10.4,25.8,11111222
Shell,ioos:station:wmo:42882:1,2021-12-17T07:21:00Z,28.1771,-89.1168,10.4,25.8,11111222
Shell,ioos:station:wmo:42882:1,2021-12-17T07:31:00Z,28.1773,-89.1177,10.4,25.8,11111222
Shell,ioos:station:wmo:42882:1,2021-12-17T07:41:00Z,28.1781,-89.1173,10.3,25.8,11111222
Shell,ioos:station:wmo:42882:1,2021-12-17T07:51:00Z,28.1776,-89.1165,10.2,25.8,11111222
Shell,ioos:station:wmo:42882:1,2021-12-17T08:01:00Z,28.1774,-89.1165,10.4,25.8,11111222
Shell,ioos:station:wmo:42882:1,2021-12-17T08:11:00Z,28.1777,-89.1156,10.4,25.8,11111222
Shell,ioos:station:wmo:42882:1,2021-12-17T08:21:00Z,28.1779,-89.1153,10.3,25.8,11111222
Shell,ioos:station:wmo:42882:1,2021-12-17T08:31:00Z,28.1779,-89.1153,10.3,25.8,11111222
Shell,ioos:station:wmo:42882:1,2021-12-17T08:41:00Z,28.1779,-89.1153,10.0,25.8,11111222
Shell,ioos:station:wmo:42882:1,2021-12-17T08:51:00Z,28.1779,-89.1153,10.0,25.8,11111222
Shell,ioos:station:wmo:42882:1,2021-12-17T09:01:00Z,28.1779,-89.1153,10.0,25.8,11111222
Shell,ioos:station:wmo:42882:1,2021-12-17T09:11:00Z,28.1779,-89.1153,10.0,25.8,11111222
Shell,ioos:station:wmo:42882:1,2021-12-17T09:21:00Z,28.1779,-89.1153,10.0,25.8,11111222
Shell,ioos:station:wmo:42882:1,2021-12-17T09:31:00Z,28.1779,-89.1153,9.9,25.8,11111222
Shell,ioos:station:wmo:42882:1,2021-12-17T09:41:00Z,28.1779,-89.1153,10.0,25.8,11111222
Shell,ioos:station:wmo:42882:1,2021-12-17T09:51:00Z,28.1779,-89.1153,9.9,25.8,11111222
Shell,ioos:station:wmo:42882:1,2021-12-17T10:01:00Z,28.1779,-89.1153,9.9,25.8,11111222
Shell,ioos:station:wmo:42882:1,2021-12-17T10:11:00Z,28.1779,-89.1153,9.9,25.8,11111222
Shell,ioos:station:wmo:42882:1,2021-12-17T10:21:00Z,28.1779,-89.1153,9.9,25.7,11111222
Shell,ioos:station:wmo:42882:1,2021-12-17T10:31:00Z,28.1779,-89.1153,10.0,25.7,11111222
Shell,ioos:station:wmo:42882:1,2021-12-17T10:41:00Z,28.1779,-89.1153,10.0,25.7,11111222
Shell,ioos:station:wmo:42882:1,2021-12-17T10:51:00Z,28.1779,-89.1153,10.0,25.7,11111222
Shell,ioos:station:wmo:42882:1,2021-12-17T11:01:00Z,28.1779,-89.1153,10.0,25.7,11111222
Shell,ioos:station:wmo:42882:1,2021-12-17T11:11:00Z,28.1779,-89.1153,10.0,25.7,11111222
Shell,ioos:station:wmo:42882:1,2021-12-17T11:21:00Z,28.1779,-89.1153,10.1,25.7,11111222
Shell,ioos:station:wmo:42882:1,2021-12-17T11:31:00Z,28.1779,-89.1153,10.1,25.7,11111222
Shell,ioos:station:wmo:42882:1,2021-12-17T11:41:00Z,28.1779,-89.1153,10.2,25.7,11111222
Shell,ioos:station:wmo:42882:1,2021-12-17T11:51:00Z,28.1778,-89.1153,10.5,25.7,11111222
Shell,ioos:station:wmo:42882:1,2021-12-17T12:01:00Z,28.1778,-89.1153,10.5,25.7,11111222
Shell,ioos:station:wmo:42882:1,2021-12-17T12:11:00Z,28.1778,-89.1153,10.5,25.7,11111222
Shell,ioos:station:wmo:42882:1,2021-12-17T12:21:00Z,28.1779,-89.1153,10.3,25.7,11111222
Shell,ioos:station:wmo:42882:1,2021-12-17T12:31:00Z,28.1779,-89.1153,10.3,25.7,11111222
Shell,ioos:station:wmo:42882:1,2021-12-17T12:41:00Z,28.1779,-89.1153,10.3,25.7,11111222
Shell,ioos:station:wmo:42882:1,2021-12-17T12:51:00Z,28.1779,-89.1153,10.3,25.7,11111222
Shell,ioos:station:wmo:42882:1,2021-12-17T13:01:00Z,28.1779,-89.1153,10.2,25.7,11111222
Shell,ioos:station:wmo:42882:1,2021-12-17T13:11:00Z,28.1779,-89.1153,10.2,25.7,11111222
Shell,ioos:station:wmo:42882:1,2021-12-17T13:21:00Z,28.1779,-89.1153,10.2,25.7,11111222
Shell,ioos:station:wmo:42882:1,2021-12-17T13:31:00Z,28.1779,-89.1153,10.2,25.7,11111222
Shell,ioos:station:wmo:42882:1,2021-12-17T13:41:00Z,28.1779,-89.1153,10.2,25.7,11111222
Shell,ioos:station:wmo:42882:1,2021-12-17T13:51:00Z,28.1779,-89.1153,10.2,25.7,11111222
Shell,ioos:station:wmo:42882:1,2021-12-17T14:01:00Z,28.1779,-89.1153,10.2,25.7,11111222
Shell,ioos:station:wmo:42882:1,2021-12-17T14:11:00Z,28.1779,-89.1153,10.2,25.7,11111222
Shell,ioos:station:wmo:42882:1,2021-12-17T14:21:00Z,28.1779,-89.1153,10.2,25.7,11111222
Shell,ioos:station:wmo:42882:1,2021-12-17T14:31:00Z,28.1779,-89.1153,10.2,25.7,11111222
Shell,ioos:station:wmo:42882:1,2021-12-17T14:41:00Z,28.1779,-89.1153,10.2,25.7,11111222
Shell,ioos:station:wmo:42882:1,2021-12-17T14:51:00Z,28.1779,-89.1153,10.2,25.7,11111222
Shell,ioos:station:wmo:42882:1,2021-12-17T15:01:00Z,28.1779,-89.1153,10.2,25.6,11111222
Shell,ioos:station:wmo:42882:1,2021-12-17T15:11:00Z,28.1779,-89.1153,10.1,25.6,11111222
Shell,ioos:station:wmo:42882:1,2021-12-17T16:10:00Z,28.1732,-89.1169,10.2,25.6,11111222
Shell,ioos:station:wmo:42882:1,2021-12-17T16:20:00Z,28.1732,-89.1169,10.2,25.6,11111222
Shell,ioos:station:wmo:42882:1,2021-12-17T16:30:00Z,28.1732,-89.1169,10.2,25.6,11111222
Shell,ioos:station:wmo:42882:1,2021-12-17T16:40:00Z,28.1732,-89.1169,10.2,25.6,11111222
Shell,ioos:station:wmo:42882:1,2021-12-17T16:50:00Z,28.1732,-89.1169,10.2,25.6,11111222
Shell,ioos:station:wmo:42882:1,2021-12-17T17:00:00Z,28.1732,-89.1169,10.1,25.7,11111222
Shell,ioos:station:wmo:42882:1,2021-12-17T17:10:00Z,28.1732,-89.1169,10.2,25.7,11111222
Shell,ioos:station:wmo:42882:1,2021-12-17T17:20:00Z,28.1732,-89.1169,10.2,25.7,11111222
Shell,ioos:station:wmo:42882:1,2021-12-17T17:30:00Z,28.1732,-89.1169,10.3,25.7,11111222
Shell,ioos:station:wmo:42882:1,2021-12-17T17:40:00Z,28.1732,-89.1169,10.3,25.7,11111222
Shell,ioos:station:wmo:42882:1,2021-12-17T17:50:00Z,28.1732,-89.1169,10.3,25.6,11111222
Shell,ioos:station:wmo:42882:1,2021-12-17T18:00:00Z,28.1732,-89.1169,10.3,25.6,11111222
Shell,ioos:station:wmo:42882:1,2021-12-17T18:10:00Z,28.1732,-89.1169,10.3,25.6,11111222
Shell,ioos:station:wmo:42882:1,2021-12-17T18:20:00Z,28.1732,-89.1169,10.3,25.6,11111222
Shell,ioos:station:wmo:42882:1,2021-12-17T18:30:00Z,28.1732,-89.1169,10.3,25.6,11111222
Shell,ioos:station:wmo:42882:1,2021-12-17T18:40:00Z,28.1732,-89.1169,10.3,25.6,11111222
Shell,ioos:station:wmo:42882:1,2021-12-17T18:50:00Z,28.1732,-89.1169,10.3,25.6,11111222
Shell,ioos:station:wmo:42882:1,2021-12-17T19:00:00Z,28.1732,-89.1169,10.3,25.6,11111222
Shell,ioos:station:wmo:42882:1,2021-12-17T19:10:00Z,28.1732,-89.1169,10.3,25.6,11111222
Shell,ioos:station:wmo:42882:1,2021-12-17T19:20:00Z,28.1732,-89.1169,10.3,25.6,11111222
Shell,ioos:station:wmo:42882:1,2021-12-17T19:30:00Z,28.1732,-89.1169,10.3,25.6,11111222
Shell,ioos:station:wmo:42882:1,2021-12-17T19:40:00Z,28.1732,-89.1169,10.2,25.6,11111222
Shell,ioos:station:wmo:42882:1,2021-12-17T19:50:00Z,28.1732,-89.1169,10.2,25.6,11111222
Shell,ioos:station:wmo:42882:1,2021-12-17T20:00:00Z,28.1732,-89.1169,10.2,25.6,11111222
Shell,ioos:station:wmo:42882:1,2021-12-17T20:10:00Z,28.1732,-89.1169,10.2,25.7,11111222
Shell,ioos:station:wmo:42882:1,2021-12-17T20:20:00Z,28.1732,-89.1169,10.2,25.7,11111222
Shell,ioos:station:wmo:42882:1,2021-12-17T20:30:00Z,28.1732,-89.1169,10.2,25.7,11111222
Shell,ioos:station:wmo:42882:1,2021-12-17T20:40:00Z,28.1732,-89.1169,10.2,25.7,11111222
Shell,ioos:station:wmo:42882:1,2021-12-17T20:50:00Z,28.1732,-89.1169,10.2,25.7,11111222
Shell,ioos:station:wmo:42882:1,2021-12-17T21:00:00Z,28.1732,-89.1169,10.2,25.7,11111222
Shell,ioos:station:wmo:42882:1,2021-12-17T21:10:00Z,28.1732,-89.1169,10.2,25.7,11111222
Shell,ioos:station:wmo:42882:1,2021-12-17T21:20:00Z,28.1732,-89.1169,10.1,25.7,11111222
Shell,ioos:station:wmo:42882:1,2021-12-17T21:29:00Z,28.1732,-89.1169,10.1,25.7,11111222
Shell,ioos:station:wmo:42882:1,2021-12-17T21:40:00Z,28.1732,-89.1169,10.2,25.8,11111222
Shell,ioos:station:wmo:42882:1,2021-12-17T21:50:00Z,28.1732,-89.1169,10.0,25.8,11111222
Shell,ioos:station:wmo:42882:1,2021-12-17T22:00:00Z,28.1732,-89.1169,9.8,25.8,11111222
Shell,ioos:station:wmo:42882:1,2021-12-17T22:10:00Z,28.1732,-89.1169,9.9,25.8,11111222
Shell,ioos:station:wmo:42882:1,2021-12-17T22:20:00Z,28.1732,-89.1169,10.0,25.8,11111222
Shell,ioos:station:wmo:42882:1,2021-12-17T22:30:00Z,28.1732,-89.1169,10.0,25.8,11111222
Shell,ioos:station:wmo:42882:1,2021-12-17T22:40:00Z,28.1732,-89.1169,10.0,25.8,11111222
Shell,ioos:station:wmo:42882:1,2021-12-17T22:50:00Z,28.1732,-89.1169,10.0,25.8,11111222
Shell,ioos:station:wmo:42882:1,2021-12-17T23:00:00Z,28.1732,-89.1169,10.2,25.7,11111222
Shell,ioos:station:wmo:42882:1,2021-12-17T23:10:00Z,28.1732,-89.1169,10.2,25.8,11111222
Shell,ioos:station:wmo:42882:1,2021-12-17T23:20:00Z,28.1732,-89.1169,10.3,25.8,11111222
Shell,ioos:station:wmo:42882:1,2021-12-17T23:30:00Z,28.1732,-89.1169,10.3,25.8,11111222
Shell,ioos:station:wmo:42882:1,2021-12-17T23:40:00Z,28.1732,-89.1169,10.3,25.8,11111222
Shell,ioos:station:wmo:42882:1,2021-12-17T23:50:00Z,28.1732,-89.1169,10.4,25.8,11111222
Shell,ioos:station:wmo:42882:1,2021-12-18T00:00:00Z,28.1732,-89.1169,10.1,25.8,11111222
Shell,ioos:station:wmo:42882:1,2021-12-18T00:10:00Z,28.1732,-89.1169,10.1,25.7,11111222
Shell,ioos:station:wmo:42882:1,2021-12-18T00:20:00Z,28.1732,-89.1169,10.1,25.7,11111222
Shell,ioos:station:wmo:42882:1,2021-12-18T00:30:00Z,28.1732,-89.1169,10.2,25.7,11111222
Shell,ioos:station:wmo:42882:1,2021-12-18T00:40:00Z,28.1732,-89.1169,10.2,25.7,11111222
Shell,ioos:station:wmo:42882:1,2021-12-18T00:50:00Z,28.1732,-89.1169,10.2,25.7,11111222
Shell,ioos:station:wmo:42882:1,2021-12-18T01:00:00Z,28.1732,-89.1169,10.2,25.8,11111222
Shell,ioos:station:wmo:42882:1,2021-12-18T01:10:00Z,28.1732,-89.1169,10.2,25.8,11111222
Shell,ioos:station:wmo:42882:1,2021-12-18T01:20:00Z,28.1732,-89.1169,10.3,25.8,11111222
Shell,ioos:station:wmo:42882:1,2021-12-18T01:30:00Z,28.1732,-89.1169,10.3,25.7,11111222
Shell,ioos:station:wmo:42882:1,2021-12-18T01:40:00Z,28.1732,-89.1169,10.3,25.7,11111222
Shell,ioos:station:wmo:42882:1,2021-12-18T01:50:00Z,28.1732,-89.1169,10.3,25.7,11111222
Shell,ioos:station:wmo:42882:1,2021-12-18T02:00:00Z,28.1732,-89.1169,10.3,25.7,11111222
Shell,ioos:station:wmo:42882:1,2021-12-18T02:10:00Z,28.1732,-89.1169,10.3,25.7,11111222
Shell,ioos:station:wmo:42882:1,2021-12-18T02:20:00Z,28.1732,-89.1169,10.2,25.7,11111222
Shell,ioos:station:wmo:42882:1,2021-12-18T02:30:00Z,28.1732,-89.1169,10.2,25.7,11111222
Shell,ioos:station:wmo:42882:1,2021-12-18T02:40:00Z,28.1732,-89.1169,9.9,25.6,11111222
Shell,ioos:station:wmo:42882:1,2021-12-18T02:50:00Z,28.1732,-89.1169,9.8,25.6,11111222
Shell,ioos:station:wmo:42882:1,2021-12-18T03:00:00Z,28.1732,-89.1169,9.8,25.6,11111222
Shell,ioos:station:wmo:42882:1,2021-12-18T03:10:00Z,28.1732,-89.1169,9.8,25.5,11111222
Shell,ioos:station:wmo:42882:1,2021-12-18T03:20:00Z,28.1732,-89.1169,9.8,25.5,11111222
Shell,ioos:station:wmo:42882:1,2021-12-18T03:30:00Z,28.1732,-89.1169,9.8,25.5,11111222
Shell,ioos:station:wmo:42882:1,2021-12-18T03:40:00Z,28.1732,-89.1169,9.8,25.5,11111222
Shell,ioos:station:wmo:42882:1,2021-12-18T03:50:00Z,28.1732,-89.1169,10.2,25.4,11111222
Shell,ioos:station:wmo:42882:1,2021-12-18T04:00:00Z,28.1732,-89.1169,10.5,25.3,11111222
Shell,ioos:station:wmo:42882:1,2021-12-18T04:10:00Z,28.1732,-89.1169,10.4,25.3,11111222
Shell,ioos:station:wmo:42882:1,2021-12-18T04:20:00Z,28.1732,-89.1169,10.2,25.3,11111222
Shell,ioos:station:wmo:42882:1,2021-12-18T04:30:00Z,28.1732,-89.1169,10.1,25.2,11111222
Shell,ioos:station:wmo:42882:1,2021-12-18T04:40:00Z,28.1732,-89.1169,10.1,25.2,11111222
Shell,ioos:station:wmo:42882:1,2021-12-18T04:50:00Z,28.1732,-89.1169,10.1,25.2,11111222
Shell,ioos:station:wmo:42882:1,2021-12-18T05:00:00Z,28.1732,-89.1169,10.1,25.2,11111222
Shell,ioos:station:wmo:42882:1,2021-12-18T05:10:00Z,28.1732,-89.1169,10.3,25.2,11111222
Shell,ioos:station:wmo:42882:1,2021-12-18T05:20:00Z,28.1732,-89.1169,10.4,25.2,11111222
Shell,ioos:station:wmo:42882:1,2021-12-18T05:30:00Z,28.1732,-89.1169,10.4,25.2,11111222
Shell,ioos:station:wmo:42882:1,2021-12-18T05:40:00Z,28.1732,-89.1169,10.3,25.3,11111222
Shell,ioos:station:wmo:42882:1,2021-12-18T05:50:00Z,28.1732,-89.1169,10.3,25.3,11111222
Shell,ioos:station:wmo:42882:1,2021-12-18T06:00:00Z,28.1732,-89.1169,10.3,25.3,11111222
Shell,ioos:station:wmo:42882:1,2021-12-18T06:10:00Z,28.1732,-89.1169,10.3,25.3,11111222
Shell,ioos:station:wmo:42882:1,2021-12-18T06:20:00Z,28.1732,-89.1169,10.2,25.2,11111222
Shell,ioos:station:wmo:42882:1,2021-12-18T06:30:00Z,28.1732,-89.1169,10.2,25.3,11111222
Shell,ioos:station:wmo:42882:1,2021-12-18T06:40:00Z,28.1732,-89.1169,10.3,25.3,11111222
Shell,ioos:station:wmo:42882:1,2021-12-18T06:50:00Z,28.1732,-89.1169,10.1,25.3,11111222
Shell,ioos:station:wmo:42882:1,2021-12-18T07:00:00Z,28.1732,-89.1169,10.1,25.3,11111222
Shell,ioos:station:wmo:42882:1,2021-12-18T07:10:00Z,28.1732,-89.1169,10.1,25.3,11111222
Shell,ioos:station:wmo:42882:1,2021-12-18T07:20:00Z,28.1732,-89.1169,10.2,25.4,11111222
Shell,ioos:station:wmo:42882:1,2021-12-18T07:30:00Z,28.1732,-89.1169,10.2,25.4,11111222
Shell,ioos:station:wmo:42882:1,2021-12-18T07:40:00Z,28.1732,-89.1169,10.3,25.5,11111222
Shell,ioos:station:wmo:42882:1,2021-12-18T07:50:00Z,28.1732,-89.1169,10.3,25.5,11111222
Shell,ioos:station:wmo:42882:1,2021-12-18T08:00:00Z,28.1732,-89.1169,10.3,25.6,11111222
Shell,ioos:station:wmo:42882:1,2021-12-18T08:10:00Z,28.1732,-89.1169,10.3,25.6,11111222
Shell,ioos:station:wmo:42882:1,2021-12-18T08:20:00Z,28.1732,-89.1169,10.3,25.6,11111222
Shell,ioos:station:wmo:42882:1,2021-12-18T08:30:00Z,28.1732,-89.1169,10.3,25.6,11111222
Shell,ioos:station:wmo:42882:1,2021-12-18T08:40:00Z,28.1732,-89.1169,10.2,25.6,11111222
Shell,ioos:station:wmo:42882:1,2021-12-18T08:50:00Z,28.1732,-89.1169,10.1,25.6,11111222
Shell,ioos:station:wmo:42882:1,2021-12-18T09:00:00Z,28.1732,-89.1169,10.0,25.6,11111222
Shell,ioos:station:wmo:42882:1,2021-12-18T09:10:00Z,28.1732,-89.1169,10.2,25.6,11111222
Shell,ioos:station:wmo:42882:1,2021-12-18T09:20:00Z,28.1732,-89.1169,10.1,25.5,11111222
Shell,ioos:station:wmo:42882:1,2021-12-18T09:30:00Z,28.1732,-89.1169,10.0,25.5,11111222
Shell,ioos:station:wmo:42882:1,2021-12-18T09:40:00Z,28.1732,-89.1169,10.0,25.5,11111222
Shell,ioos:station:wmo:42882:1,2021-12-18T09:50:00Z,28.1732,-89.1169,10.1,25.5,11111222
Shell,ioos:station:wmo:42882:1,2021-12-18T10:00:00Z,28.1732,-89.1169,10.1,25.5,11111222
Shell,ioos:station:wmo:42882:1,2021-12-18T10:10:00Z,28.1732,-89.1169,10.2,25.5,11111222
Shell,ioos:station:wmo:42882:1,2021-12-18T10:20:00Z,28.1732,-89.1169,10.2,25.5,11111222
Shell,ioos:station:wmo:42882:1,2021-12-18T10:30:00Z,28.1732,-89.1169,10.2,25.5,11111222
Shell,ioos:station:wmo:42882:1,2021-12-18T10:40:00Z,28.1732,-89.1169,10.4,25.5,11111222
Shell,ioos:station:wmo:42882:1,2021-12-18T10:50:00Z,28.1732,-89.1169,10.4,25.5,11111222
Shell,ioos:station:wmo:42882:1,2021-12-18T11:00:00Z,28.1732,-89.1169,10.4,25.5,11111222
Shell,ioos:station:wmo:42882:1,2021-12-18T11:10:00Z,28.1732,-89.1169,10.4,25.5,11111222
Shell,ioos:station:wmo:42882:1,2021-12-18T11:20:00Z,28.1732,-89.1169,10.4,25.5,11111222
Shell,ioos:station:wmo:42882:1,2021-12-18T11:30:00Z,28.1732,-89.1169,10.4,25.5,11111222
Shell,ioos:station:wmo:42882:1,2021-12-18T11:40:00Z,28.1732,-89.1169,10.4,25.5,11111222
Shell,ioos:station:wmo:42882:1,2021-12-18T11:50:00Z,28.1732,-89.1169,10.3,25.5,11111222
Shell,ioos:station:wmo:42882:1,2021-12-18T12:00:00Z,28.1732,-89.1169,10.2,25.5,11111222
Shell,ioos:station:wmo:42882:1,2021-12-18T12:10:00Z,28.1732,-89.1169,10.3,25.5,11111222
Shell,ioos:station:wmo:42882:1,2021-12-18T12:20:00Z,28.1732,-89.1169,10.1,25.5,11111222
Shell,ioos:station:wmo:42882:1,2021-12-18T12:30:00Z,28.1732,-89.1169,10.0,25.4,11111222
Shell,ioos:station:wmo:42882:1,2021-12-18T12:40:00Z,28.1732,-89.1169,10.1,25.4,11111222